| time (UTC) | temp F | wind direction | speed knots | gust knots | rain 1hr in | rain 24hr in | rain mn in | humidity % | barometer mb |
| 20260903202520 | 89 | 237 | 0.0 | 0.9 | 0.00 | 0.00 | 0.00 | 66 | 1012.7 |
| 20260903202015 | 89 | 175 | 0.0 | 0.9 | 0.00 | 0.00 | 0.00 | 66 | 1012.5 |
| 20260903201510 | 90 | 210 | 0.0 | 0.9 | 0.00 | 0.00 | 0.00 | 65 | 1012.5 |
| 20260903201009 | 90 | 197 | 0.9 | 1.7 | 0.00 | 0.00 | 0.00 | 64 | 1012.7 |
| 20260903200504 | 90 | 199 | 0.0 | 0.0 | 0.00 | 0.00 | 0.00 | 65 | 1012.7 |
| 20260903195959 | 89 | 194 | 0.0 | 0.0 | 0.00 | 0.00 | 0.00 | 66 | 1012.6 |
| 20260903195455 | 89 | 226 | 0.9 | 1.7 | 0.00 | 0.00 | 0.00 | 66 | 1012.4 |
| 20260903194950 | 89 | 200 | 0.9 | 0.9 | 0.00 | 0.00 | 0.00 | 66 | 1012.9 |
| 20260903194445 | 89 | 242 | 0.9 | 0.9 | 0.00 | 0.00 | 0.00 | 67 | 1012.8 |
| 20260903193941 | 89 | 188 | 0.9 | 1.7 | 0.00 | 0.00 | 0.00 | 66 | 1012.7 |
| 20260903193437 | 89 | 173 | 0.0 | 0.9 | 0.00 | 0.00 | 0.00 | 67 | 1012.8 |
| 20260903192932 | 88 | 163 | 0.9 | 0.9 | 0.00 | 0.00 | 0.00 | 68 | 1013.1 |
| 20260903192429 | 88 | 207 | 0.0 | 0.0 | 0.00 | 0.00 | 0.00 | 68 | 1013.0 |
| 20260903191924 | 87 | 206 | 0.0 | 0.9 | 0.00 | 0.00 | 0.00 | 70 | 1013.1 |
| 20260903191420 | 87 | 182 | 0.9 | 1.7 | 0.00 | 0.00 | 0.00 | 70 | 1013.2 |
| 20260903190919 | 87 | 196 | 0.0 | 0.0 | 0.00 | 0.00 | 0.00 | 71 | 1013.1 |
| 20260903190414 | 87 | 208 | 0.0 | 0.0 | 0.00 | 0.00 | 0.00 | 70 | 1013.3 |
| 20260903185913 | 87 | 186 | 0.9 | 0.9 | 0.00 | 0.00 | 0.00 | 70 | 1013.2 |
| 20260903185409 | 87 | 187 | 0.9 | 0.9 | 0.00 | 0.00 | 0.00 | 70 | 1013.2 |
| 20260903184904 | 87 | 157 | 0.9 | 0.9 | 0.00 | 0.00 | 0.00 | 71 | 1013.4 |
| 20260903184401 | 86 | 208 | 0.0 | 0.0 | 0.00 | 0.00 | 0.00 | 71 | 1013.5 |
| 20260903183900 | 87 | 186 | 0.9 | 0.9 | 0.00 | 0.00 | 0.00 | 71 | 1013.6 |
| 20260903183355 | 86 | 230 | 0.0 | 0.9 | 0.00 | 0.00 | 0.00 | 72 | 1013.6 |
| 20260903182855 | 86 | 186 | 0.9 | 1.7 | 0.00 | 0.00 | 0.00 | 73 | 1013.8 |
| 20260903182353 | 85 | 196 | 0.0 | 0.9 | 0.00 | 0.00 | 0.00 | 74 | 1013.9 |
| 20260903181848 | 85 | 184 | 0.0 | 0.9 | 0.00 | 0.00 | 0.00 | 73 | 1013.9 |
| 20260903181343 | 85 | 209 | 0.9 | 0.9 | 0.00 | 0.00 | 0.00 | 74 | 1014.0 |
| 20260903180838 | 85 | 192 | 0.0 | 0.0 | 0.00 | 0.00 | 0.00 | 74 | 1014.0 |
| 20260903180337 | 84 | 233 | 1.7 | 2.6 | 0.00 | 0.00 | 0.00 | 74 | 1014.1 |
| 20260903175831 | 84 | 188 | 0.9 | 0.9 | 0.00 | 0.00 | 0.00 | 75 | 1014.2 |
| 20260903175330 | 84 | 200 | 0.9 | 0.9 | 0.00 | 0.00 | 0.00 | 76 | 1014.3 |
| 20260903174825 | 84 | 181 | 1.7 | 2.6 | 0.00 | 0.00 | 0.00 | 76 | 1014.3 |
| 20260903174321 | 84 | 213 | 0.9 | 1.7 | 0.00 | 0.00 | 0.00 | 76 | 1014.2 |
| 20260903173815 | 83 | 209 | 0.0 | 0.9 | 0.00 | 0.00 | 0.00 | 77 | 1014.3 |
| 20260903173311 | 83 | 203 | 0.0 | 0.9 | 0.00 | 0.00 | 0.00 | 77 | 1014.5 |
| 20260903172807 | 83 | 210 | 0.0 | 0.0 | 0.00 | 0.00 | 0.00 | 78 | 1014.6 |
| 20260903172301 | 82 | 230 | 0.0 | 0.0 | 0.00 | 0.00 | 0.00 | 80 | 1014.6 |
| 20260903171756 | 83 | 334 | 0.9 | 1.7 | 0.00 | 0.00 | 0.00 | 80 | 1014.9 |
| 20260903171252 | 83 | 216 | 0.0 | 0.0 | 0.00 | 0.00 | 0.00 | 80 | 1014.7 |
| 20260903170750 | 83 | 177 | 1.7 | 1.7 | 0.00 | 0.00 | 0.00 | 80 | 1014.6 |
| 20260903170246 | 83 | 196 | 0.0 | 0.0 | 0.00 | 0.00 | 0.00 | 79 | 1014.8 |
| 20260903165744 | 83 | 211 | 0.9 | 1.7 | 0.00 | 0.00 | 0.00 | 79 | 1014.3 |
| 20260903165239 | 83 | 174 | 0.9 | 1.7 | 0.00 | 0.00 | 0.00 | 79 | 1014.4 |
| 20260903164739 | 83 | 187 | 0.0 | 0.9 | 0.00 | 0.00 | 0.00 | 80 | 1014.4 |
| 20260903164235 | 83 | 195 | 0.0 | 0.0 | 0.00 | 0.00 | 0.00 | 80 | 1014.5 |
| 20260903163734 | 84 | 172 | 0.0 | 0.0 | 0.00 | 0.00 | 0.00 | 80 | 1014.4 |
| 20260903163231 | 83 | 186 | 0.0 | 0.0 | 0.00 | 0.00 | 0.00 | 80 | 1014.3 |
| 20260903162726 | 83 | 204 | 0.0 | 0.0 | 0.00 | 0.00 | 0.00 | 81 | 1014.3 |
| 20260903162222 | 83 | 194 | 0.0 | 0.0 | 0.00 | 0.00 | 0.00 | 82 | 1014.3 |
| 20260903161718 | 83 | 160 | 0.0 | 0.0 | 0.00 | 0.00 | 0.00 | 82 | 1014.4 |
| 20260903161213 | 82 | 185 | 0.0 | 0.0 | 0.00 | 0.00 | 0.00 | 83 | 1014.2 |
| 20260903160709 | 82 | 195 | 0.0 | 0.0 | 0.00 | 0.00 | 0.00 | 84 | 1014.1 |
| 20260903160202 | 82 | 190 | 0.0 | 0.0 | 0.00 | 0.00 | 0.00 | 83 | 1014.2 |
| 20260903155701 | 82 | 207 | 0.0 | 0.0 | 0.00 | 0.00 | 0.00 | 84 | 1014.3 |
| 20260903155156 | 82 | 215 | 0.0 | 0.0 | 0.00 | 0.00 | 0.00 | 84 | 1014.2 |
| 20260903154652 | 82 | 187 | 0.0 | 0.0 | 0.00 | 0.00 | 0.00 | 85 | 1014.3 |
| 20260903154148 | 82 | 198 | 0.0 | 0.0 | 0.00 | 0.00 | 0.00 | 85 | 1014.3 |
| 20260903153644 | 82 | 175 | 0.0 | 0.0 | 0.00 | 0.00 | 0.00 | 86 | 1014.3 |
| 20260903153139 | 82 | 196 | 0.0 | 0.0 | 0.00 | 0.00 | 0.00 | 85 | 1014.3 |
| 20260903152635 | 82 | 189 | 0.0 | 0.0 | 0.00 | 0.00 | 0.00 | 85 | 1014.0 |
| 20260903152131 | 82 | 208 | 0.0 | 0.0 | 0.00 | 0.00 | 0.00 | 86 | 1014.1 |
| 20260903151631 | 82 | 231 | 0.0 | 0.0 | 0.00 | 0.00 | 0.00 | 86 | 1014.2 |
| 20260903151125 | 82 | 212 | 0.0 | 0.0 | 0.00 | 0.00 | 0.00 | 86 | 1014.1 |
| 20260903150620 | 81 | 185 | 0.0 | 0.0 | 0.00 | 0.00 | 0.00 | 86 | 1014.3 |
| 20260903150115 | 81 | 202 | 0.0 | 0.0 | 0.00 | 0.00 | 0.00 | 86 | 1014.3 |
| 20260903145615 | 81 | 203 | 0.9 | 0.9 | 0.00 | 0.00 | 0.00 | 86 | 1014.1 |
| 20260903145110 | 81 | 198 | 0.0 | 0.0 | 0.00 | 0.00 | 0.00 | 86 | 1014.4 |
| 20260903144609 | 81 | 250 | 0.0 | 0.0 | 0.00 | 0.00 | 0.00 | 86 | 1014.1 |
| 20260903144105 | 81 | 192 | 0.0 | 0.0 | 0.00 | 0.00 | 0.00 | 86 | 1014.3 |
| 20260903143601 | 81 | 199 | 0.0 | 0.0 | 0.00 | 0.00 | 0.00 | 86 | 1014.2 |
| 20260903143057 | 81 | 195 | 0.0 | 0.0 | 0.00 | 0.00 | 0.00 | 86 | 1014.2 |
| 20260903142552 | 81 | 221 | 0.0 | 0.0 | 0.00 | 0.00 | 0.00 | 86 | 1014.2 |
| 20260903142049 | 81 | 179 | 0.9 | 0.9 | 0.00 | 0.00 | 0.00 | 86 | 1014.1 |
| 20260903141544 | 80 | 174 | 0.0 | 0.0 | 0.00 | 0.00 | 0.00 | 87 | 1014.3 |
| 20260903141039 | 80 | 178 | 0.0 | 0.0 | 0.00 | 0.00 | 0.00 | 87 | 1014.2 |
| 20260903140534 | 80 | 161 | 0.0 | 0.0 | 0.00 | 0.00 | 0.00 | 87 | 1014.2 |
| 20260903140029 | 80 | 191 | 0.9 | 0.9 | 0.00 | 0.00 | 0.00 | 88 | 1014.3 |
| 20260903135525 | 79 | 195 | 0.0 | 0.0 | 0.00 | 0.00 | 0.00 | 88 | 1014.5 |
| 20260903135025 | 79 | 190 | 0.0 | 0.0 | 0.00 | 0.00 | 0.00 | 88 | 1014.3 |
| 20260903134524 | 79 | 189 | 0.0 | 0.0 | 0.00 | 0.00 | 0.00 | 88 | 1014.5 |
| 20260903134020 | 79 | 89 | 0.0 | 0.0 | 0.00 | 0.00 | 0.00 | 88 | 1014.4 |
| 20260903133518 | 79 | 189 | 0.0 | 0.0 | 0.00 | 0.00 | 0.00 | 88 | 1014.4 |
| 20260903133013 | 79 | 181 | 0.0 | 0.0 | 0.00 | 0.00 | 0.00 | 88 | 1014.2 |
| 20260903132508 | 79 | 195 | 0.0 | 0.0 | 0.00 | 0.00 | 0.00 | 88 | 1014.1 |
| 20260903132004 | 79 | 219 | 0.0 | 0.0 | 0.00 | 0.00 | 0.00 | 88 | 1014.2 |
| 20260903131458 | 79 | 228 | 0.0 | 0.0 | 0.00 | 0.00 | 0.00 | 88 | 1014.0 |
| 20260903130956 | 79 | 226 | 0.0 | 0.0 | 0.00 | 0.00 | 0.00 | 88 | 1013.9 |
| 20260903130452 | 79 | 198 | 0.0 | 0.0 | 0.00 | 0.00 | 0.00 | 88 | 1013.8 |
| 20260903125951 | 79 | 211 | 0.0 | 0.0 | 0.00 | 0.00 | 0.00 | 88 | 1013.9 |
| 20260903125450 | 79 | 210 | 0.0 | 0.0 | 0.00 | 0.00 | 0.00 | 88 | 1013.9 |
| 20260903124951 | 79 | 195 | 0.0 | 0.0 | 0.00 | 0.00 | 0.00 | 88 | 1013.8 |
| 20260903124446 | 79 | 199 | 0.0 | 0.0 | 0.00 | 0.00 | 0.00 | 88 | 1014.0 |
| 20260903123945 | 79 | 215 | 0.0 | 0.0 | 0.00 | 0.00 | 0.00 | 88 | 1014.1 |
| 20260903123439 | 79 | 189 | 0.0 | 0.9 | 0.00 | 0.00 | 0.00 | 88 | 1013.9 |
| 20260903122938 | 79 | 193 | 0.0 | 0.0 | 0.00 | 0.00 | 0.00 | 88 | 1013.7 |
| 20260903122433 | 79 | 208 | 0.0 | 0.9 | 0.00 | 0.00 | 0.00 | 88 | 1013.8 |
| 20260903121932 | 79 | 188 | 0.0 | 0.0 | 0.00 | 0.00 | 0.00 | 88 | 1013.7 |
| 20260903121427 | 79 | 186 | 0.0 | 0.0 | 0.00 | 0.00 | 0.00 | 88 | 1013.8 |
| 20260903120923 | 79 | 191 | 0.0 | 0.0 | 0.00 | 0.00 | 0.00 | 88 | 1013.6 |
| 20260903120421 | 79 | 191 | 0.0 | 0.0 | 0.00 | 0.00 | 0.00 | 88 | 1013.6 |
| 20260903115920 | 79 | 228 | 0.0 | 0.0 | 0.00 | 0.00 | 0.00 | 88 | 1013.5 |
| 20260903115414 | 78 | 210 | 0.0 | 0.0 | 0.00 | 0.00 | 0.00 | 88 | 1013.4 |
| 20260903114909 | 78 | 183 | 0.0 | 0.0 | 0.00 | 0.00 | 0.00 | 88 | 1013.2 |
| 20260903114405 | 78 | 194 | 0.0 | 0.0 | 0.00 | 0.00 | 0.00 | 87 | 1013.3 |
| 20260903113901 | 78 | 200 | 0.0 | 0.0 | 0.00 | 0.00 | 0.00 | 87 | 1013.5 |
| 20260903113356 | 78 | 199 | 0.0 | 0.0 | 0.00 | 0.00 | 0.00 | 87 | 1013.5 |
| 20260903112852 | 78 | 207 | 0.0 | 0.0 | 0.00 | 0.00 | 0.00 | 87 | 1013.4 |
| 20260903112347 | 78 | 197 | 0.0 | 0.0 | 0.00 | 0.00 | 0.00 | 87 | 1013.6 |
| 20260903111846 | 78 | 198 | 0.0 | 0.0 | 0.00 | 0.00 | 0.00 | 87 | 1013.3 |
| 20260903111345 | 78 | 210 | 0.0 | 0.0 | 0.00 | 0.00 | 0.00 | 87 | 1013.5 |
| 20260903110842 | 78 | 218 | 0.0 | 0.0 | 0.00 | 0.00 | 0.00 | 87 | 1013.6 |
| 20260903110337 | 78 | 190 | 0.0 | 0.0 | 0.00 | 0.00 | 0.00 | 86 | 1013.6 |
| 20260903105833 | 78 | 195 | 0.0 | 0.0 | 0.00 | 0.00 | 0.00 | 87 | 1013.6 |
| 20260903105332 | 78 | 203 | 0.0 | 0.0 | 0.00 | 0.00 | 0.00 | 87 | 1013.4 |
| 20260903104826 | 78 | 191 | 0.0 | 0.0 | 0.00 | 0.00 | 0.00 | 87 | 1013.4 |
| 20260903104321 | 78 | 187 | 0.0 | 0.0 | 0.00 | 0.00 | 0.00 | 87 | 1013.3 |
| 20260903103819 | 78 | 196 | 0.0 | 0.0 | 0.00 | 0.00 | 0.00 | 87 | 1013.1 |
| 20260903103314 | 78 | 191 | 0.9 | 0.9 | 0.00 | 0.00 | 0.00 | 87 | 1013.2 |
| 20260903102809 | 78 | 209 | 0.0 | 0.0 | 0.00 | 0.00 | 0.00 | 88 | 1013.1 |
| 20260903102305 | 78 | 206 | 0.0 | 0.0 | 0.00 | 0.00 | 0.00 | 87 | 1013.1 |
| 20260903101802 | 78 | 206 | 0.0 | 0.0 | 0.00 | 0.00 | 0.00 | 87 | 1013.1 |
| 20260903101258 | 78 | 188 | 0.0 | 0.0 | 0.00 | 0.00 | 0.00 | 87 | 1013.2 |
| 20260903100754 | 78 | 185 | 0.0 | 0.0 | 0.00 | 0.00 | 0.00 | 87 | 1013.2 |
| 20260903100248 | 78 | 208 | 0.0 | 0.0 | 0.00 | 0.00 | 0.00 | 86 | 1013.3 |
| 20260903095745 | 79 | 194 | 0.0 | 0.0 | 0.00 | 0.00 | 0.00 | 86 | 1013.4 |
| 20260903095240 | 79 | 196 | 0.0 | 0.0 | 0.00 | 0.00 | 0.00 | 86 | 1013.2 |
| 20260903094735 | 79 | 198 | 0.0 | 0.0 | 0.00 | 0.00 | 0.00 | 85 | 1013.3 |
| 20260903094230 | 78 | 188 | 0.0 | 0.0 | 0.00 | 0.00 | 0.00 | 85 | 1013.3 |
| 20260903093726 | 78 | 196 | 0.0 | 0.0 | 0.00 | 0.00 | 0.00 | 86 | 1013.4 |
| 20260903093221 | 78 | 196 | 0.0 | 0.0 | 0.00 | 0.00 | 0.00 | 86 | 1013.3 |
| 20260903092720 | 78 | 196 | 0.0 | 0.0 | 0.00 | 0.00 | 0.00 | 86 | 1013.4 |
| 20260903092215 | 78 | 196 | 0.0 | 0.0 | 0.00 | 0.00 | 0.00 | 86 | 1013.2 |
| 20260903091714 | 78 | 196 | 0.0 | 0.0 | 0.00 | 0.00 | 0.00 | 86 | 1013.4 |
| 20260903091209 | 78 | 196 | 0.0 | 0.0 | 0.00 | 0.00 | 0.00 | 86 | 1013.2 |
| 20260903090704 | 78 | 196 | 0.0 | 0.0 | 0.00 | 0.00 | 0.00 | 85 | 1013.1 |
| 20260903090202 | 79 | 196 | 0.0 | 0.0 | 0.00 | 0.00 | 0.00 | 85 | 1013.0 |
| 20260903085701 | 79 | 196 | 0.0 | 0.0 | 0.00 | 0.00 | 0.00 | 85 | 1012.9 |
| 20260903085157 | 79 | 196 | 0.0 | 0.0 | 0.00 | 0.00 | 0.00 | 84 | 1013.0 |
| 20260903084654 | 79 | 196 | 0.0 | 0.0 | 0.00 | 0.00 | 0.00 | 84 | 1012.8 |
| 20260903084149 | 79 | 197 | 0.0 | 0.0 | 0.00 | 0.00 | 0.00 | 84 | 1013.1 |
| 20260903083646 | 79 | 197 | 0.0 | 0.0 | 0.00 | 0.00 | 0.00 | 84 | 1013.1 |
| 20260903083145 | 79 | 194 | 0.0 | 0.0 | 0.00 | 0.00 | 0.00 | 84 | 1013.0 |
| 20260903082639 | 79 | 193 | 0.0 | 0.0 | 0.00 | 0.00 | 0.00 | 84 | 1013.0 |
| 20260903082135 | 79 | 219 | 0.0 | 0.0 | 0.00 | 0.00 | 0.00 | 84 | 1012.9 |
| 20260903081630 | 79 | 211 | 0.0 | 0.0 | 0.00 | 0.00 | 0.00 | 84 | 1013.1 |
| 20260903081126 | 79 | 194 | 0.0 | 0.0 | 0.00 | 0.00 | 0.00 | 85 | 1013.1 |
| 20260903080622 | 79 | 202 | 0.0 | 0.0 | 0.00 | 0.00 | 0.00 | 85 | 1012.9 |
| 20260903080120 | 79 | 205 | 0.0 | 0.0 | 0.00 | 0.00 | 0.00 | 85 | 1013.1 |
| 20260903075613 | 79 | 204 | 0.0 | 0.0 | 0.00 | 0.00 | 0.00 | 86 | 1013.0 |
| 20260903075108 | 79 | 204 | 0.0 | 0.0 | 0.00 | 0.00 | 0.00 | 87 | 1012.8 |
| 20260903074607 | 79 | 195 | 0.0 | 0.0 | 0.00 | 0.00 | 0.00 | 87 | 1013.1 |
| 20260903074103 | 78 | 195 | 0.0 | 0.0 | 0.00 | 0.00 | 0.00 | 87 | 1012.8 |
| 20260903073558 | 79 | 195 | 0.0 | 0.0 | 0.00 | 0.00 | 0.00 | 87 | 1013.0 |
| 20260903073054 | 78 | 195 | 0.0 | 0.0 | 0.00 | 0.00 | 0.00 | 87 | 1013.0 |
| 20260903072549 | 78 | 195 | 0.0 | 0.0 | 0.00 | 0.00 | 0.00 | 87 | 1013.0 |
| 20260903072046 | 78 | 195 | 0.0 | 0.0 | 0.00 | 0.00 | 0.00 | 87 | 1012.8 |
| 20260903071541 | 78 | 195 | 0.0 | 0.0 | 0.00 | 0.00 | 0.00 | 86 | 1013.0 |
| 20260903071036 | 78 | 195 | 0.0 | 0.0 | 0.00 | 0.00 | 0.00 | 87 | 1013.1 |
| 20260903070536 | 78 | 195 | 0.0 | 0.0 | 0.00 | 0.00 | 0.00 | 87 | 1013.4 |
| 20260903070032 | 79 | 195 | 0.0 | 0.0 | 0.00 | 0.00 | 0.00 | 86 | 1012.9 |
| 20260903065531 | 79 | 195 | 0.0 | 0.0 | 0.00 | 0.00 | 0.00 | 86 | 1013.1 |
| 20260903065031 | 79 | 195 | 0.0 | 0.0 | 0.00 | 0.00 | 0.00 | 86 | 1013.1 |
| 20260903064531 | 78 | 217 | 0.0 | 0.0 | 0.00 | 0.00 | 0.00 | 86 | 1013.0 |
| 20260903064026 | 78 | 187 | 0.0 | 0.0 | 0.00 | 0.00 | 0.00 | 86 | 1013.1 |
| 20260903063521 | 78 | 191 | 0.0 | 0.0 | 0.00 | 0.00 | 0.00 | 86 | 1013.2 |
| 20260903063017 | 78 | 190 | 0.0 | 0.0 | 0.00 | 0.00 | 0.00 | 86 | 1013.1 |
| 20260903062512 | 78 | 190 | 0.0 | 0.0 | 0.00 | 0.00 | 0.00 | 86 | 1013.2 |
| 20260903062007 | 78 | 181 | 0.0 | 0.0 | 0.00 | 0.00 | 0.00 | 85 | 1013.0 |
| 20260903061502 | 78 | 191 | 0.0 | 0.0 | 0.00 | 0.00 | 0.00 | 85 | 1013.0 |
| 20260903060957 | 79 | 190 | 0.0 | 0.0 | 0.00 | 0.00 | 0.00 | 85 | 1013.2 |
| 20260903060451 | 79 | 187 | 0.0 | 0.0 | 0.00 | 0.00 | 0.00 | 84 | 1013.0 |
| 20260903055950 | 79 | 194 | 0.0 | 0.0 | 0.00 | 0.00 | 0.00 | 84 | 1013.4 |
| 20260903055448 | 79 | 198 | 0.0 | 0.0 | 0.00 | 0.00 | 0.00 | 83 | 1013.6 |
| 20260903054942 | 79 | 190 | 0.0 | 0.0 | 0.00 | 0.00 | 0.00 | 83 | 1013.5 |
| 20260903054437 | 79 | 188 | 0.0 | 0.0 | 0.00 | 0.00 | 0.00 | 82 | 1013.4 |
| 20260903053933 | 79 | 199 | 0.9 | 0.9 | 0.00 | 0.00 | 0.00 | 82 | 1013.4 |
| 20260903053433 | 80 | 207 | 0.0 | 0.0 | 0.00 | 0.00 | 0.00 | 82 | 1013.4 |
| 20260903052929 | 80 | 191 | 0.0 | 0.9 | 0.00 | 0.00 | 0.00 | 81 | 1013.5 |
| 20260903052425 | 80 | 52 | 0.0 | 1.7 | 0.00 | 0.00 | 0.00 | 80 | 1013.4 |
| 20260903051921 | 80 | 197 | 0.0 | 0.0 | 0.00 | 0.00 | 0.00 | 80 | 1013.7 |
| 20260903051416 | 80 | 187 | 0.0 | 0.0 | 0.00 | 0.00 | 0.00 | 80 | 1013.4 |
| 20260903050911 | 80 | 196 | 0.0 | 0.0 | 0.00 | 0.00 | 0.00 | 80 | 1013.5 |
| 20260903050410 | 80 | 192 | 0.0 | 0.0 | 0.00 | 0.00 | 0.00 | 80 | 1013.5 |
| 20260903045905 | 80 | 191 | 0.0 | 0.0 | 0.00 | 0.12 | 0.12 | 79 | 1013.7 |
| 20260903045400 | 80 | 191 | 0.0 | 0.0 | 0.00 | 0.12 | 0.12 | 78 | 1013.7 |
| 20260903044857 | 80 | 189 | 0.0 | 0.9 | 0.00 | 0.12 | 0.12 | 78 | 1013.6 |
| 20260903044352 | 81 | 187 | 0.0 | 0.9 | 0.00 | 0.12 | 0.12 | 78 | 1013.5 |
| 20260903043849 | 81 | 354 | 0.0 | 0.0 | 0.00 | 0.12 | 0.12 | 77 | 1013.6 |
| 20260903043349 | 81 | 211 | 0.9 | 0.9 | 0.00 | 0.12 | 0.12 | 77 | 1013.5 |
| 20260903042847 | 81 | 192 | 0.0 | 0.0 | 0.00 | 0.12 | 0.12 | 77 | 1013.7 |
| 20260903042343 | 81 | 199 | 0.9 | 0.9 | 0.00 | 0.12 | 0.12 | 76 | 1013.4 |
| 20260903041839 | 82 | 194 | 0.0 | 0.0 | 0.00 | 0.12 | 0.12 | 75 | 1013.6 |
| 20260903041335 | 82 | 192 | 0.0 | 0.0 | 0.00 | 0.12 | 0.12 | 76 | 1013.5 |
| 20260903040830 | 82 | 184 | 0.0 | 0.9 | 0.00 | 0.12 | 0.12 | 76 | 1013.6 |
| 20260903040329 | 82 | 190 | 0.0 | 0.0 | 0.00 | 0.12 | 0.12 | 76 | 1013.6 |
| 20260903035826 | 82 | 186 | 0.0 | 0.9 | 0.00 | 0.12 | 0.12 | 75 | 1013.7 |
| 20260903035320 | 82 | 192 | 0.0 | 0.0 | 0.00 | 0.12 | 0.12 | 75 | 1013.5 |
| 20260903034816 | 82 | 210 | 0.9 | 1.7 | 0.00 | 0.12 | 0.12 | 75 | 1013.7 |
| 20260903034311 | 82 | 183 | 1.7 | 2.6 | 0.00 | 0.12 | 0.12 | 74 | 1013.6 |
| 20260903033806 | 82 | 200 | 0.0 | 0.9 | 0.00 | 0.12 | 0.12 | 74 | 1013.6 |
| 20260903033255 | 82 | 210 | 0.0 | 0.0 | 0.00 | 0.12 | 0.12 | 74 | 1013.6 |
| 20260903032750 | 82 | 195 | 0.0 | 0.0 | 0.00 | 0.12 | 0.12 | 74 | 1013.6 |
| 20260903032247 | 83 | 22 | 1.7 | 2.6 | 0.00 | 0.12 | 0.12 | 73 | 1013.5 |
| 20260903031742 | 83 | 187 | 0.0 | 0.0 | 0.00 | 0.12 | 0.12 | 73 | 1013.5 |
| 20260903031240 | 83 | 197 | 0.0 | 0.9 | 0.00 | 0.12 | 0.12 | 72 | 1013.7 |
| 20260903030737 | 83 | 196 | 0.0 | 0.0 | 0.00 | 0.12 | 0.12 | 72 | 1013.6 |
| 20260903030232 | 83 | 217 | 0.0 | 0.0 | 0.00 | 0.12 | 0.12 | 73 | 1013.5 |
| 20260903025728 | 83 | 193 | 0.0 | 0.9 | 0.00 | 0.12 | 0.12 | 72 | 1013.6 |
| 20260903025223 | 83 | 191 | 0.0 | 0.0 | 0.00 | 0.12 | 0.12 | 73 | 1013.3 |
| 20260903024723 | 83 | 172 | 0.0 | 0.9 | 0.00 | 0.12 | 0.12 | 73 | 1013.5 |
| 20260903024222 | 83 | 219 | 0.0 | 0.9 | 0.00 | 0.12 | 0.12 | 73 | 1013.3 |
| 20260903023718 | 82 | 222 | 0.0 | 0.0 | 0.00 | 0.12 | 0.12 | 74 | 1013.3 |
| 20260903023213 | 81 | 206 | 0.0 | 0.0 | 0.00 | 0.12 | 0.12 | 78 | 1013.3 |
| 20260903022708 | 79 | 179 | 0.9 | 1.7 | 0.00 | 0.12 | 0.12 | 87 | 1013.2 |
| 20260903022207 | 78 | 185 | 0.0 | 0.9 | 0.00 | 0.12 | 0.12 | 86 | 1013.2 |
| 20260903021706 | 78 | 183 | 0.0 | 0.9 | 0.00 | 0.12 | 0.12 | 88 | 1013.1 |
| 20260903021202 | 77 | 178 | 0.0 | 0.9 | 0.00 | 0.12 | 0.12 | 89 | 1013.2 |
| 20260903020656 | 76 | 175 | 0.0 | 0.0 | 0.00 | 0.12 | 0.12 | 94 | 1012.8 |
| 20260903020156 | 76 | 200 | 0.0 | 0.0 | 0.00 | 0.12 | 0.12 | 96 | 1012.7 |
| 20260903015652 | 76 | 199 | 0.0 | 0.0 | 0.00 | 0.12 | 0.12 | 97 | 1012.9 |
| 20260903015148 | 76 | 332 | 0.0 | 0.0 | 0.00 | 0.12 | 0.12 | 98 | 1012.9 |
| 20260903014642 | 76 | 212 | 0.0 | 0.0 | 0.00 | 0.12 | 0.12 | 98 | 1012.6 |
| 20260903014141 | 76 | 213 | 0.0 | 0.0 | 0.00 | 0.12 | 0.12 | 98 | 1012.5 |
| 20260903013636 | 76 | 221 | 0.0 | 0.0 | 0.00 | 0.12 | 0.12 | 98 | 1012.6 |
| 20260903013131 | 76 | 228 | 0.0 | 0.0 | 0.00 | 0.12 | 0.12 | 98 | 1012.5 |
| 20260903012630 | 77 | 219 | 0.0 | 0.0 | 0.00 | 0.12 | 0.12 | 98 | 1012.2 |
| 20260903012129 | 78 | 168 | 0.0 | 0.0 | 0.00 | 0.12 | 0.12 | 98 | 1012.3 |
| 20260903011628 | 78 | 215 | 0.0 | 0.0 | 0.00 | 0.12 | 0.12 | 98 | 1012.2 |
| 20260903011123 | 78 | 196 | 0.0 | 0.0 | 0.00 | 0.12 | 0.12 | 98 | 1012.2 |
| 20260903010619 | 78 | 214 | 0.0 | 0.0 | 0.00 | 0.12 | 0.12 | 98 | 1012.0 |
| 20260903010117 | 78 | 211 | 0.0 | 0.0 | 0.00 | 0.12 | 0.12 | 98 | 1012.0 |
| 20260903005612 | 79 | 208 | 0.0 | 0.0 | 0.00 | 0.12 | 0.12 | 98 | 1012.0 |
| 20260903005107 | 80 | 210 | 0.0 | 0.0 | 0.00 | 0.12 | 0.12 | 98 | 1012.1 |
| 20260903004602 | 81 | 194 | 0.0 | 0.0 | 0.00 | 0.12 | 0.12 | 98 | 1012.2 |
| 20260903004057 | 81 | 204 | 0.0 | 0.0 | 0.00 | 0.12 | 0.12 | 98 | 1011.9 |
| 20260903003552 | 82 | 200 | 0.0 | 0.0 | 0.00 | 0.12 | 0.12 | 98 | 1012.1 |
| 20260903003047 | 82 | 200 | 0.0 | 0.0 | 0.00 | 0.12 | 0.12 | 98 | 1011.8 |
| 20260903002543 | 82 | 203 | 0.0 | 0.0 | 0.00 | 0.12 | 0.12 | 98 | 1012.0 |
| 20260903002037 | 82 | 203 | 0.0 | 0.0 | 0.00 | 0.12 | 0.12 | 98 | 1012.0 |
| 20260903001531 | 82 | 200 | 0.0 | 0.0 | 0.00 | 0.12 | 0.12 | 98 | 1011.8 |
| 20260903001025 | 82 | 200 | 0.0 | 0.0 | 0.00 | 0.12 | 0.12 | 98 | 1011.8 |
| 20260903000521 | 82 | 200 | 0.0 | 0.0 | 0.00 | 0.12 | 0.12 | 98 | 1011.7 |
| 20260903000020 | 81 | 200 | 0.0 | 0.0 | 0.00 | 0.12 | 0.12 | 98 | 1012.1 |
| 20260902235514 | 81 | 194 | 0.0 | 0.0 | 0.00 | 0.12 | 0.12 | 97 | 1011.9 |
| 20260902235009 | 81 | 194 | 0.0 | 0.0 | 0.00 | 0.12 | 0.12 | 97 | 1011.8 |
| 20260902234504 | 80 | 194 | 0.0 | 0.0 | 0.00 | 0.12 | 0.12 | 97 | 1011.8 |
| 20260902234002 | 80 | 209 | 0.0 | 0.0 | 0.00 | 0.12 | 0.12 | 97 | 1011.8 |
| 20260902233501 | 80 | 200 | 0.0 | 0.0 | 0.00 | 0.12 | 0.12 | 97 | 1011.9 |
| 20260902232956 | 80 | 200 | 0.0 | 0.0 | 0.00 | 0.12 | 0.12 | 97 | 1011.8 |
| 20260902232450 | 79 | 191 | 0.0 | 0.0 | 0.00 | 0.12 | 0.12 | 96 | 1011.7 |
| 20260902231944 | 78 | 206 | 0.0 | 0.0 | 0.05 | 0.12 | 0.12 | 95 | 1011.8 |
| 20260902231440 | 78 | 211 | 0.0 | 0.0 | 0.05 | 0.12 | 0.12 | 95 | 1011.9 |
| 20260902230939 | 78 | 237 | 0.0 | 0.0 | 0.12 | 0.11 | 0.11 | 94 | 1011.8 |
| 20260902230434 | 79 | 193 | 0.0 | 0.0 | 0.61 | 0.11 | 0.11 | 92 | 1012.0 |
| 20260902225928 | 81 | 228 | 0.0 | 0.0 | 0.47 | 0.08 | 0.08 | 88 | 1012.2 |
| 20260902225423 | 86 | 197 | 0.0 | 0.9 | 0.12 | 0.02 | 0.02 | 79 | 1012.4 |
| 20260902224921 | 93 | 156 | 0.9 | 0.9 | 0.00 | 0.00 | 0.00 | 62 | 1012.1 |
| 20260902224416 | 96 | 222 | 1.7 | 2.6 | 0.00 | 0.00 | 0.00 | 50 | 1011.7 |
| 20260902223913 | 98 | 174 | 0.9 | 0.9 | 0.00 | 0.00 | 0.00 | 44 | 1011.2 |
| 20260902223407 | 99 | 184 | 0.0 | 0.9 | 0.00 | 0.00 | 0.00 | 43 | 1011.3 |
| 20260902222902 | 99 | 205 | 0.0 | 0.0 | 0.00 | 0.00 | 0.00 | 42 | 1011.1 |
| 20260902222400 | 99 | 182 | 0.9 | 0.9 | 0.00 | 0.00 | 0.00 | 42 | 1011.2 |
| 20260902221900 | 98 | 215 | 0.9 | 0.9 | 0.00 | 0.00 | 0.00 | 43 | 1011.1 |
| 20260902221359 | 98 | 188 | 0.0 | 0.0 | 0.00 | 0.00 | 0.00 | 43 | 1011.5 |
| 20260902220855 | 99 | 202 | 0.9 | 0.9 | 0.00 | 0.00 | 0.00 | 43 | 1011.6 |
| 20260902220354 | 99 | 188 | 0.0 | 0.0 | 0.00 | 0.00 | 0.00 | 43 | 1011.4 |
| 20260902215850 | 99 | 204 | 0.9 | 0.9 | 0.00 | 0.00 | 0.00 | 43 | 1011.3 |
| 20260902215350 | 99 | 72 | 0.9 | 0.9 | 0.00 | 0.00 | 0.00 | 43 | 1011.4 |
| 20260902214846 | 98 | 197 | 0.9 | 0.9 | 0.00 | 0.00 | 0.00 | 44 | 1011.7 |
| 20260902214344 | 99 | 51 | 1.7 | 2.6 | 0.00 | 0.00 | 0.00 | 43 | 1011.7 |
| 20260902213840 | 99 | 310 | 0.0 | 0.0 | 0.00 | 0.00 | 0.00 | 42 | 1011.7 |
| 20260902213336 | 99 | 356 | 0.0 | 0.0 | 0.00 | 0.00 | 0.00 | 42 | 1011.7 |
| 20260902212834 | 99 | 214 | 0.0 | 0.9 | 0.00 | 0.00 | 0.00 | 41 | 1011.6 |
| 20260902212331 | 99 | 145 | 0.9 | 0.9 | 0.00 | 0.00 | 0.00 | 42 | 1011.9 |
| 20260902211827 | 99 | 189 | 0.0 | 0.9 | 0.00 | 0.00 | 0.00 | 42 | 1012.0 |
| 20260902211322 | 99 | 195 | 0.0 | 0.0 | 0.00 | 0.00 | 0.00 | 42 | 1011.9 |
| 20260902210817 | 98 | 223 | 0.9 | 0.9 | 0.00 | 0.00 | 0.00 | 42 | 1011.8 |
| 20260902210312 | 99 | 189 | 0.9 | 1.7 | 0.00 | 0.00 | 0.00 | 42 | 1011.8 |
| 20260902205810 | 98 | 189 | 0.0 | 0.0 | 0.00 | 0.00 | 0.00 | 43 | 1012.0 |
| 20260902205306 | 98 | 204 | 0.9 | 0.9 | 0.00 | 0.00 | 0.00 | 43 | 1012.0 |
| 20260902204800 | 98 | 241 | 2.6 | 3.5 | 0.00 | 0.00 | 0.00 | 42 | 1012.1 |
| 20260902204255 | 98 | 202 | 0.0 | 0.0 | 0.00 | 0.00 | 0.00 | 43 | 1012.1 |
| 20260902203751 | 98 | 203 | 0.0 | 0.9 | 0.00 | 0.00 | 0.00 | 43 | 1012.2 |
| 20260902203251 | 99 | 194 | 0.0 | 0.0 | 0.00 | 0.00 | 0.00 | 42 | 1012.5 |